Time,TemperatureF,DewpointF,PressureIn,WindDirection,WindDirectionDegrees,WindSpeedMPH,WindSpeedGustMPH,Humidity,HourlyPrecipIn,Conditions,Clouds,dailyrainin,SoftwareType,DateUTC
2013-01-04 00:12:00,38.9,37.0,30.28,SW,225,0.0,0.0,93,0.00,,,0.00,weatherlink.com 1.10,2013-01-04 08:12:00,
2013-01-04 00:27:00,39.2,37.0,30.28,SW,225,0.0,0.0,92,0.00,,,0.00,weatherlink.com 1.10,2013-01-04 08:27:00,
2013-01-04 00:42:00,39.2,37.0,30.28,SW,225,0.0,0.0,92,0.00,,,0.00,weatherlink.com 1.10,2013-01-04 08:42:00,
2013-01-04 00:57:00,39.3,37.0,30.28,SW,225,0.0,0.0,91,0.00,,,0.00,weatherlink.com 1.10,2013-01-04 08:57:00,
2013-01-04 01:12:00,39.3,37.0,30.28,SW,225,0.0,0.0,91,0.00,,,0.00,weatherlink.com 1.10,2013-01-04 09:12:00,
2013-01-04 01:27:00,38.9,37.0,30.28,SW,225,0.0,0.0,93,0.00,,,0.00,weatherlink.com 1.10,2013-01-04 09:27:00,
2013-01-04 01:42:00,38.5,37.0,30.28,SW,225,0.0,0.0,93,0.00,,,0.00,weatherlink.com 1.10,2013-01-04 09:42:00,
2013-01-04 01:57:00,38.1,36.0,30.29,SW,225,0.0,0.0,93,0.00,,,0.00,weatherlink.com 1.10,2013-01-04 09:57:00,
2013-01-04 02:12:00,37.7,36.0,30.29,SW,225,0.0,0.0,95,0.00,,,0.00,weatherlink.com 1.10,2013-01-04 10:12:00,
2013-01-04 02:27:00,37.4,36.0,30.28,SW,225,0.0,0.0,95,0.00,,,0.00,weatherlink.com 1.10,2013-01-04 10:27:00,
2013-01-04 02:42:00,37.3,36.0,30.28,SW,225,0.0,1.0,95,0.00,,,0.00,weatherlink.com 1.10,2013-01-04 10:42:00,
2013-01-04 02:57:00,36.9,36.0,30.28,SW,225,0.0,0.0,95,0.00,,,0.00,weatherlink.com 1.10,2013-01-04 10:57:00,
2013-01-04 03:12:00,36.8,36.0,30.27,SW,225,0.0,0.0,96,0.00,,,0.00,weatherlink.com 1.10,2013-01-04 11:12:00,
2013-01-04 03:27:00,36.7,36.0,30.27,SW,225,0.0,0.0,96,0.00,,,0.00,weatherlink.com 1.10,2013-01-04 11:27:00,
2013-01-04 03:42:00,37.0,36.0,30.26,SW,225,0.0,0.0,97,0.00,,,0.00,weatherlink.com 1.10,2013-01-04 11:42:00,
2013-01-04 03:57:00,37.5,37.0,30.26,SW,225,0.0,0.0,97,0.00,,,0.00,weatherlink.com 1.10,2013-01-04 11:57:00,
2013-01-04 04:12:00,37.3,36.0,30.26,SW,225,0.0,1.0,96,0.00,,,0.00,weatherlink.com 1.10,2013-01-04 12:12:00,
2013-01-04 04:27:00,36.8,36.0,30.27,SW,225,0.0,0.0,96,0.00,,,0.00,weatherlink.com 1.10,2013-01-04 12:27:00,
2013-01-04 04:42:00,36.6,36.0,30.27,SW,225,0.0,0.0,96,0.00,,,0.00,weatherlink.com 1.10,2013-01-04 12:42:00,
2013-01-04 04:57:00,36.0,35.0,30.27,SW,225,0.0,1.0,97,0.00,,,0.00,weatherlink.com 1.10,2013-01-04 12:57:00,
2013-01-04 05:12:00,35.7,35.0,30.27,SW,225,0.0,0.0,97,0.00,,,0.00,weatherlink.com 1.10,2013-01-04 13:12:00,
2013-01-04 05:27:00,35.7,35.0,30.27,SW,225,1.0,1.0,97,0.00,,,0.00,weatherlink.com 1.10,2013-01-04 13:27:00,
2013-01-04 05:42:00,35.9,35.0,30.27,SW,225,0.0,1.0,98,0.00,,,0.00,weatherlink.com 1.10,2013-01-04 13:42:00,
2013-01-04 05:57:00,35.9,35.0,30.26,SW,225,0.0,1.0,98,0.00,,,0.00,weatherlink.com 1.10,2013-01-04 13:57:00,
2013-01-04 06:12:00,37.5,37.0,30.25,SW,225,1.0,3.0,99,0.00,,,0.00,weatherlink.com 1.10,2013-01-04 14:12:00,
2013-01-04 06:27:00,38.6,37.0,30.26,SW,225,0.0,1.0,95,0.00,,,0.00,weatherlink.com 1.10,2013-01-04 14:27:00,
2013-01-04 06:42:00,37.5,36.0,30.26,SW,225,0.0,1.0,95,0.00,,,0.00,weatherlink.com 1.10,2013-01-04 14:42:00,
2013-01-04 06:57:00,37.6,36.0,30.27,SW,225,0.0,0.0,94,0.00,,,0.00,weatherlink.com 1.10,2013-01-04 14:57:00,
2013-01-04 07:12:00,36.2,35.0,30.28,SW,225,0.0,0.0,95,0.00,,,0.00,weatherlink.com 1.10,2013-01-04 15:12:00,
2013-01-04 07:27:00,36.2,36.0,30.27,SW,225,0.0,0.0,97,0.00,,,0.00,weatherlink.com 1.10,2013-01-04 15:27:00,
2013-01-04 07:42:00,37.0,36.0,30.28,SW,225,0.0,0.0,97,0.00,,,0.00,weatherlink.com 1.10,2013-01-04 15:42:00,
2013-01-04 07:57:00,36.8,36.0,30.29,SW,225,0.0,0.0,97,0.00,,,0.00,weatherlink.com 1.10,2013-01-04 15:57:00,
2013-01-04 08:12:00,36.3,36.0,30.29,SW,225,0.0,1.0,97,0.00,,,0.00,weatherlink.com 1.10,2013-01-04 16:12:00,
2013-01-04 08:27:00,38.0,38.0,30.29,SW,225,0.0,0.0,99,0.00,,,0.00,weatherlink.com 1.10,2013-01-04 16:27:00,
2013-01-04 08:42:00,40.5,40.0,30.29,SW,225,0.0,1.0,96,0.00,,,0.00,weatherlink.com 1.10,2013-01-04 16:42:00,
2013-01-04 08:57:00,41.4,39.0,30.29,SSW,204,0.0,4.0,90,0.00,,,0.00,weatherlink.com 1.10,2013-01-04 16:57:00,
2013-01-04 09:12:00,42.2,40.0,30.30,SSW,204,2.0,3.0,92,0.00,,,0.00,weatherlink.com 1.10,2013-01-04 17:12:00,
2013-01-04 09:27:00,42.2,40.0,30.30,SSW,204,0.0,2.0,90,0.00,,,0.00,weatherlink.com 1.10,2013-01-04 17:27:00,
2013-01-04 09:42:00,43.0,40.0,30.30,SSW,204,1.0,2.0,89,0.00,,,0.00,weatherlink.com 1.10,2013-01-04 17:42:00,
2013-01-04 10:12:00,46.6,42.0,30.31,SSW,199,1.0,2.0,84,0.00,,,0.00,weatherlink.com 1.10,2013-01-04 18:12:00,
2013-01-04 10:28:00,49.4,43.0,30.30,SSW,199,0.0,2.0,79,0.00,,,0.00,weatherlink.com 1.10,2013-01-04 18:28:00,
2013-01-04 10:43:00,49.6,43.0,30.30,SSW,199,0.0,3.0,78,0.00,,,0.00,weatherlink.com 1.10,2013-01-04 18:43:00,
2013-01-04 10:58:00,50.8,44.0,30.30,SSW,199,3.0,3.0,78,0.00,,,0.00,weatherlink.com 1.10,2013-01-04 18:58:00,
2013-01-04 11:13:00,51.4,44.0,30.29,South,186,1.0,4.0,75,0.00,,,0.00,weatherlink.com 1.10,2013-01-04 19:13:00,
2013-01-04 11:28:00,51.4,43.0,30.28,SSW,199,4.0,4.0,74,0.00,,,0.00,weatherlink.com 1.10,2013-01-04 19:28:00,
2013-01-04 11:43:00,52.2,44.0,30.27,SSW,213,2.0,5.0,73,0.00,,,0.00,weatherlink.com 1.10,2013-01-04 19:43:00,
2013-01-04 11:58:00,52.6,43.0,30.26,SW,222,1.0,5.0,71,0.00,,,0.00,weatherlink.com 1.10,2013-01-04 19:58:00,
2013-01-04 12:13:00,52.6,44.0,30.25,SW,220,2.0,5.0,72,0.00,,,0.00,weatherlink.com 1.10,2013-01-04 20:13:00,
2013-01-04 12:28:00,53.5,44.0,30.25,South,184,4.0,6.0,69,0.00,,,0.00,weatherlink.com 1.10,2013-01-04 20:28:00,
2013-01-04 12:43:00,54.3,43.0,30.24,South,189,2.0,6.0,67,0.00,,,0.00,weatherlink.com 1.10,2013-01-04 20:43:00,
2013-01-04 12:58:00,54.3,43.0,30.23,WSW,242,2.0,6.0,67,0.00,,,0.00,weatherlink.com 1.10,2013-01-04 20:58:00,
2013-01-04 13:13:00,55.2,43.0,30.23,WSW,241,3.0,6.0,63,0.00,,,0.00,weatherlink.com 1.10,2013-01-04 21:13:00,
2013-01-04 13:43:00,56.7,42.0,30.22,WSW,242,3.0,4.0,59,0.00,,,0.00,weatherlink.com 1.10,2013-01-04 21:43:00,
2013-01-04 13:58:00,57.1,43.0,30.22,WSW,243,2.0,4.0,59,0.00,,,0.00,weatherlink.com 1.10,2013-01-04 21:58:00,
2013-01-04 14:13:00,57.9,41.0,30.21,WSW,241,3.0,4.0,54,0.00,,,0.00,weatherlink.com 1.10,2013-01-04 22:13:00,
2013-01-04 14:28:00,58.1,42.0,30.21,SSW,199,2.0,5.0,56,0.00,,,0.00,weatherlink.com 1.10,2013-01-04 22:28:00,
2013-01-04 14:43:00,58.2,41.0,30.21,SW,234,3.0,5.0,54,0.00,,,0.00,weatherlink.com 1.10,2013-01-04 22:43:00,
2013-01-04 14:58:00,57.8,42.0,30.21,SW,215,2.0,6.0,56,0.00,,,0.00,weatherlink.com 1.10,2013-01-04 22:58:00,
2013-01-04 15:13:00,57.4,42.0,30.21,South,180,3.0,5.0,56,0.00,,,0.00,weatherlink.com 1.10,2013-01-04 23:13:00,
2013-01-04 15:28:00,57.3,42.0,30.20,South,172,1.0,5.0,58,0.00,,,0.00,weatherlink.com 1.10,2013-01-04 23:28:00,
2013-01-04 15:43:00,57.6,42.0,30.21,South,187,4.0,5.0,56,0.00,,,0.00,weatherlink.com 1.10,2013-01-04 23:43:00,
2013-01-04 15:58:00,57.1,42.0,30.20,SSW,199,2.0,5.0,58,0.00,,,0.00,weatherlink.com 1.10,2013-01-04 23:58:00,
2013-01-04 16:13:00,56.2,41.0,30.21,SSW,209,2.0,5.0,57,0.00,,,0.00,weatherlink.com 1.10,2013-01-05 00:13:00,
2013-01-04 16:28:00,55.3,41.0,30.20,South,186,4.0,4.0,60,0.00,,,0.00,weatherlink.com 1.10,2013-01-05 00:28:00,
2013-01-04 16:43:00,53.9,42.0,30.20,SSW,199,1.0,3.0,65,0.00,,,0.00,weatherlink.com 1.10,2013-01-05 00:43:00,
2013-01-04 16:58:00,52.6,42.0,30.20,SSW,204,2.0,4.0,67,0.00,,,0.00,weatherlink.com 1.10,2013-01-05 00:58:00,
2013-01-04 17:13:00,51.4,41.0,30.21,South,177,0.0,3.0,68,0.00,,,0.00,weatherlink.com 1.10,2013-01-05 01:13:00,
2013-01-04 17:28:00,50.1,42.0,30.21,South,175,0.0,2.0,73,0.00,,,0.00,weatherlink.com 1.10,2013-01-05 01:28:00,
2013-01-04 17:43:00,48.9,42.0,30.21,SSW,209,0.0,1.0,76,0.00,,,0.00,weatherlink.com 1.10,2013-01-05 01:43:00,
2013-01-04 17:58:00,48.6,42.0,30.22,WSW,244,0.0,1.0,78,0.00,,,0.00,weatherlink.com 1.10,2013-01-05 01:58:00,
2013-01-04 18:13:00,48.1,42.0,30.22,WSW,244,0.0,1.0,78,0.00,,,0.00,weatherlink.com 1.10,2013-01-05 02:13:00,
2013-01-04 18:28:00,47.1,41.0,30.22,WSW,244,0.0,1.0,80,0.00,,,0.00,weatherlink.com 1.10,2013-01-05 02:28:00,
2013-01-04 18:43:00,46.3,41.0,30.22,WSW,244,0.0,0.0,82,0.00,,,0.00,weatherlink.com 1.10,2013-01-05 02:43:00,
2013-01-04 18:58:00,45.8,41.0,30.22,WSW,244,0.0,0.0,83,0.00,,,0.00,weatherlink.com 1.10,2013-01-05 02:58:00,
2013-01-04 19:14:00,45.3,41.0,30.22,WSW,244,0.0,0.0,84,0.00,,,0.00,weatherlink.com 1.10,2013-01-05 03:14:00,
2013-01-04 19:28:00,44.4,41.0,30.22,WSW,244,0.0,0.0,86,0.00,,,0.00,weatherlink.com 1.10,2013-01-05 03:28:00,
2013-01-04 19:44:00,44.0,39.0,30.22,SSE,150,0.0,3.0,83,0.00,,,0.00,weatherlink.com 1.10,2013-01-05 03:44:00,
2013-01-04 19:59:00,44.0,39.0,30.23,SSE,150,0.0,1.0,81,0.00,,,0.00,weatherlink.com 1.10,2013-01-05 03:59:00,
2013-01-04 20:14:00,43.1,40.0,30.23,SSE,150,0.0,0.0,87,0.00,,,0.00,weatherlink.com 1.10,2013-01-05 04:14:00,
2013-01-04 20:29:00,42.1,39.0,30.23,SSE,150,0.0,0.0,90,0.00,,,0.00,weatherlink.com 1.10,2013-01-05 04:29:00,
2013-01-04 20:44:00,41.5,39.0,30.23,SSE,150,0.0,0.0,91,0.00,,,0.00,weatherlink.com 1.10,2013-01-05 04:44:00,
2013-01-04 20:59:00,41.4,39.0,30.23,SSE,150,0.0,0.0,92,0.00,,,0.00,weatherlink.com 1.10,2013-01-05 04:59:00,
2013-01-04 21:29:00,41.7,38.0,30.23,SSE,150,0.0,1.0,85,0.00,,,0.00,weatherlink.com 1.10,2013-01-05 05:29:00,
2013-01-04 21:44:00,41.7,38.0,30.23,SSE,150,0.0,1.0,88,0.00,,,0.00,weatherlink.com 1.10,2013-01-05 05:44:00,
2013-01-04 21:59:00,41.0,38.0,30.24,SSE,150,0.0,0.0,89,0.00,,,0.00,weatherlink.com 1.10,2013-01-05 05:59:00,
2013-01-04 22:14:00,40.2,38.0,30.24,SSE,150,0.0,0.0,91,0.00,,,0.00,weatherlink.com 1.10,2013-01-05 06:14:00,
2013-01-04 22:29:00,39.8,38.0,30.24,SSE,150,0.0,0.0,93,0.00,,,0.00,weatherlink.com 1.10,2013-01-05 06:29:00,
2013-01-04 22:44:00,39.6,38.0,30.25,SSE,150,0.0,1.0,93,0.00,,,0.00,weatherlink.com 1.10,2013-01-05 06:44:00,
2013-01-04 22:59:00,39.7,38.0,30.25,SSE,150,0.0,0.0,94,0.00,,,0.00,weatherlink.com 1.10,2013-01-05 06:59:00,
2013-01-04 23:14:00,39.5,38.0,30.24,SSE,150,0.0,1.0,93,0.00,,,0.00,weatherlink.com 1.10,2013-01-05 07:14:00,
2013-01-04 23:29:00,39.3,38.0,30.24,SSE,150,0.0,0.0,93,0.00,,,0.00,weatherlink.com 1.10,2013-01-05 07:29:00,
2013-01-04 23:44:00,38.8,37.0,30.24,SSE,150,0.0,0.0,94,0.00,,,0.00,weatherlink.com 1.10,2013-01-05 07:44:00,
2013-01-04 23:59:00,38.0,37.0,30.24,SSE,150,0.0,0.0,95,0.00,,,0.00,weatherlink.com 1.10,2013-01-05 07:59:00,